Location: ?????
(32.7281°N, 34.9563°E)
Time: 23:31:15
(UTC+00:00)

CZ-4B R/B - Pass Details

Date: 10 March 2021
Orbit: 388 x 454 km, 97.6° (Epoch: 22 April)

Event Time Altitude Azimuth Distance (km) Brightness Sun altitude
Rises 02:16:34 0° 130° (SE) 2,314 5.6 -21.9°
Reaches altitude 10° 02:19:20 10° 101° (E) 1,446 5.0 -21.3°
Maximum altitude 02:20:52 13° 71° (ENE) 1,267 4.7 -21.0°
Drops below altitude 10° 02:22:23 10° 41° (NE) 1,439 4.6 -20.7°
Sets 02:25:07 0° 13° (NNE) 2,291 5.3 -20.1°
